TimeMST,TemperatureF,Dew PointF,Humidity,Sea Level PressureIn,VisibilityMPH,Wind Direction,Wind SpeedMPH,Gust SpeedMPH,PrecipitationIn,Events,Conditions,WindDirDegrees,DateUTC
12:51 AM,28.0,6.1,39,30.41,10.0,NE,5.8,-,N/A,,Clear,40,2013-01-17 07:51:00
1:51 AM,26.1,6.1,43,30.41,10.0,Calm,Calm,-,N/A,,Clear,0,2013-01-17 08:51:00
2:51 AM,25.0,6.1,45,30.42,10.0,Calm,Calm,-,N/A,,Clear,0,2013-01-17 09:51:00
3:51 AM,25.0,5.0,43,30.41,10.0,NNE,5.8,-,N/A,,Clear,30,2013-01-17 10:51:00
4:51 AM,25.0,6.1,45,30.42,10.0,NNE,5.8,-,N/A,,Clear,20,2013-01-17 11:51:00
5:51 AM,26.1,6.1,43,30.43,10.0,NNE,6.9,-,N/A,,Clear,20,2013-01-17 12:51:00
6:51 AM,26.1,5.0,41,30.45,10.0,NNE,9.2,-,N/A,,Clear,20,2013-01-17 13:51:00
7:51 AM,28.9,7.0,40,30.47,10.0,North,11.5,-,N/A,,Clear,360,2013-01-17 14:51:00
8:51 AM,34.0,7.0,32,30.48,10.0,North,12.7,-,N/A,,Clear,10,2013-01-17 15:51:00
9:51 AM,39.9,8.1,27,30.48,10.0,NNE,10.4,-,N/A,,Clear,20,2013-01-17 16:51:00
10:51 AM,45.0,9.0,23,30.47,10.0,North,6.9,-,N/A,,Clear,360,2013-01-17 17:51:00
11:51 AM,48.9,10.0,21,30.41,10.0,Variable,3.5,-,N/A,,Clear,0,2013-01-17 18:51:00
12:51 PM,52.0,15.1,23,30.37,10.0,SE,8.1,17.3,N/A,,Clear,140,2013-01-17 19:51:00
1:51 PM,54.0,18.0,24,30.33,10.0,East,10.4,-,N/A,,Clear,100,2013-01-17 20:51:00
2:51 PM,55.9,18.0,23,30.30,10.0,East,10.4,-,N/A,,Clear,100,2013-01-17 21:51:00
3:51 PM,55.4,19.4,25,30.34,10.0,SE,10.4,-,N/A,,Clear,140,2013-01-17 22:51:00
4:51 PM,55.0,19.9,25,30.32,10.0,SE,10.4,-,N/A,,Clear,140,2013-01-17 23:51:00
5:51 PM,52.0,21.0,30,30.35,10.0,SE,6.9,-,N/A,,Partly Cloudy,140,2013-01-18 00:51:00
6:51 PM,48.0,21.0,34,30.37,10.0,SE,6.9,-,N/A,,Clear,130,2013-01-18 01:51:00
7:51 PM,43.0,19.9,40,30.38,10.0,ENE,5.8,-,N/A,,Clear,70,2013-01-18 02:51:00
8:51 PM,41.0,19.9,43,30.37,10.0,NE,3.5,-,N/A,,Clear,40,2013-01-18 03:51:00
9:51 PM,39.9,21.0,47,30.35,10.0,NNE,6.9,-,N/A,,Clear,20,2013-01-18 04:51:00
10:51 PM,39.0,21.0,49,30.34,10.0,NNW,5.8,-,N/A,,Clear,340,2013-01-18 05:51:00
11:51 PM,37.4,21.2,52,30.36,10.0,NNE,6.9,-,N/A,,Clear,20,2013-01-18 06:51:00